Regional Weather Roundup
Issued by NWS

Home | Current Version | Previous Version | Text Only | Print | Product List | Glossary On
Versions: 1 2 3 4 5 6 7 8 9 10 11 12 13 14 15 16 17 18 19 20 21 22 23 24 25 26 27 28 29 30 31 32 33 34 35 36 37 38 39 40 41 42 43 44 45 46 47 48 49 50
000
ASUS45 KCYS 290310
RWRWY

WYOMING REGIONAL WEATHER ROUNDUP
NATIONAL WEATHER SERVICE CHEYENNE WY
900 PM MDT THU MAY 28 2015

NOTE:  "FAIR" INDICATES FEW OR NO CLOUDS BELOW 12,000 FEET
WITH NO SIGNIFICANT WEATHER AND/OR OBSTRUCTIONS TO VISIBILITY.

WYZ001-290400-
YELLOWSTONE NATIONAL PARK

CITY           SKY/WX    TMP DP  RH WIND       PRES   REMARKS
LK YELLOWSTONE   N/A     42  39  89 CALM      30.28R
W YELLOWSTONE  NOT AVBL

$$
WYZ002>013-054>058-071-098>099-290400-
NORTHERN WYOMING

CITY           SKY/WX    TMP DP  RH WIND       PRES   REMARKS
JACKSON        FAIR      45  43  93 CALM      30.23S
CODY           CLOUDY    52  45  76 N8        30.19R
GREYBULL       CLOUDY    59  44  57 NW26G37   30.08R
WORLAND        FAIR      56  46  69 NW15      30.11R
SHERIDAN       CLOUDY    56  47  71 NW23G31   30.12R
BUFFALO        CLOUDY    53  44  71 NW14      30.13R
GILLETTE       FAIR      51  48  89 W7        30.06R
HULETT         CLOUDY    55  50  82 CALM      30.06R
NEWCASTLE      FAIR      52  46  82 NW8       30.04R

$$
WYZ014>020-022>026-101>103-290400-
CENTRAL WYOMING

CITY           SKY/WX    TMP DP  RH WIND       PRES   REMARKS
BIG PINEY      MOCLDY    47  38  71 N14       30.21R
PINEDALE       FAIR      45  37  76 NW14      30.21S
DUBOIS         CLOUDY    46  34  61 W14       30.20S
LANDER         CLOUDY    50  41  71 SW13      30.15R
RIVERTON       MOCLDY    51  45  79 NW9       30.16R
CASPER         FAIR      50  42  74 N7        30.11R
DOUGLAS        MOCLDY    55  46  71 NW8       30.10R

$$
WYZ021-027>030-104>119-290400-
SOUTHERN WYOMING

CITY           SKY/WX    TMP DP  RH WIND       PRES   REMARKS
EVANSTON       FAIR      49  37  63 N3        30.24R
KEMMERER       FAIR      45  37  76 NW8       30.23S
FORT BRIDGER   CLEAR     48  41  76 W7        30.26R
ROCK SPRINGS   FAIR      47  40  76 SW12      30.19S
DIXON          CLOUDY    48  39  70 SW5       30.23R
RAWLINS        FAIR      49  38  65 SW10      30.17R
SARATOGA       FAIR      43  41  93 W7        30.19F
LARAMIE        FAIR      49  35  58 NW5       30.16R
CHEYENNE       FAIR      56  37  49 N6        30.12R
TORRINGTON     MOCLDY    58  48  69 N7        30.01R
PINE BLUFFS    MOCLDY    55  46  71 N21G26    30.07R

$$



USA.gov is the U.S. government's official web portal to all federal, state and local government web resources and services.